Weather in Talovka

Russia / Volgograd Oblast     49°58′39″N   45°02′07″E
temp.,
°C
wind,
m/s
gust,
m/s
humid.,
%
clouds,
%
prec.,
mm/h
press.,
hPa
HPBL,
m
24 january, mon
mon2400:00−8ene61293100 0.0 1025298
03:00−9ene71492100 0.0 1025319
06:00−10ene81492100 0.0 1025326
09:00−10ene81494100 0.0 1026364
12:00−8ene71295100 0.0 1026401
15:00−7ene71295100 0.1 1026391
18:00−9ene61196100 0.1 1027256
21:00−9ene61196100 0.2 1027256
25 january, tue
tue2500:00−9ene61197100 0.1 1027257
03:00−10ene5997100 0.1 1026201
06:00−10e4897100 0.1 1025207
09:00−9e4796100 0.2 1025186
12:00−6e459396 0.3 1024229
15:00−5ese239499 0.4 1023196
18:00−9sse119998 0.1 102310
21:00−11sw22100100 0.1 102310
26 january, wed
wed2600:00−12wnw2299100 0.1 102214
03:00−13w22100100 0.1 102117
06:00−9wsw369788 0.0 1020116
09:00−10wsw239794 0.1 102141
12:00−5wsw469598 0.0 1020270
15:00−5wsw4893100 0.0 1020412
18:00−12sw229966 0.0 102211
21:00−15sw2210099 0.0 102315
27 january, thu
thu2700:00−9sw25100100 0.0 1023137
03:00−6ssw3497100 0.1 1022207
06:00−8sse339651 0.0 102147
09:00−6sse3594100 0.1 1022206
12:00−4sse3391100 0.0 1021387
15:00−4se3393100 0.1 1020332
18:00−7ese3498100 0.1 102054
21:00−8ese3599100 0.1 102085
28 january, fri
fri2800:00−10ese2398100 0.0 101939
03:00−12e2299100 0.0 101925
06:00−13ese22100100 0.0 101817
09:00−11se229772 0.1 101959
12:00−7s239388 0.1 1018189
15:00−7sw249594 0.1 1017141
18:00−14ssw2210078 0.0 101713
21:00−11s3593100 0.0 101682